Tracking 35280 objects as of 7-Sep-2026
HD Live streaming from Space Station
objects crossing your sky now

MINOTAUR 4 DEB


10-day predictions


NORAD ID: 52980
Int'l Code: 2020-046AH
Launch date: July 15, 2020
Source: United States (US)
Launch site: WALLOPS ISLAND (WLPIS)

Note: This is SATELLITE DEBRIS
Your satellite tracking list
Your tracking list is empty




NASA's NSSDC Master Catalog

Two Line Element Set (TLE):
1 52980U 20046AH  22268.14794667  .00012153  00000-0  10496-2 0  9994
2 52980  54.1455  66.2288 0035093 214.0061 145.8689 14.97159537 32205
Source of the keplerian elements: AFSPC